This is the latest recevied weather packets stored in our database for station/object N4OOJ-13. If no packets are shown the sender has not sent any weather packets the latest 10 day(s).
| Time | Temp. | Humidity | Pressure | Rain* | Wind** | Luminosity | Snow |
|---|---|---|---|---|---|---|---|
| 1788098428 | 27.22° C | 93% | 1023.4 hPa | 0 mm | - | - | - |
| 1788097821 | 26.11° C | 96% | 1023.4 hPa | 0 mm | - | - | - |
| 1788097221 | 25.56° C | 99% | 1023.4 hPa | 0 mm | - | - | - |
| 1788096617 | 25.56° C | 99% | 1023.4 hPa | 0 mm | - | - | - |
| 1788096028 | 25° C | 99% | 1023.4 hPa | 0 mm | - | - | - |
| 1788095423 | 25° C | 99% | 1023.4 hPa | 0 mm | - | - | - |
| 1788094818 | 25° C | 99% | 1023.3 hPa | 0 mm | - | - | - |
| 1788094218 | 25° C | 99% | 1023.2 hPa | 0 mm | - | - | - |
| 1788093617 | 25° C | 99% | 1022.9 hPa | 0 mm | - | - | - |
| 1788093017 | 25° C | 99% | 1022.9 hPa | 0 mm | - | - | - |
| 1788092416 | 24.44° C | 99% | 1022.9 hPa | 0 mm | - | - | - |
| 1788091824 | 24.44° C | 99% | 1022.8 hPa | 0 mm | - | - | - |
| 1788091218 | 24.44° C | 99% | 1022.7 hPa | 0 mm | - | - | - |
| 1788090619 | 24.44° C | 99% | 1022.5 hPa | 0 mm | - | - | - |
| 1788090030 | 23.89° C | 99% | 1022.4 hPa | 0 mm | - | - | - |
| 1788089425 | 23.33° C | 99% | 1022.2 hPa | 0 mm | - | - | - |
| 1788088821 | 23.33° C | 99% | 1022.1 hPa | 0 mm | - | - | - |
| 1788088224 | 23.33° C | 99% | 1022.2 hPa | 0 mm | - | - | - |
| 1788087632 | 23.33° C | 99% | 1022.2 hPa | 0 mm | - | - | - |
| 1788087032 | 23.89° C | 99% | 1022.1 hPa | 0 mm | - | - | - |
| 1788086433 | 23.89° C | 99% | 1021.9 hPa | 0 mm | - | - | - |
| 1788085826 | 23.89° C | 99% | 1022 hPa | 0 mm | - | - | - |
| 1788085221 | 23.89° C | 99% | 1021.9 hPa | 0 mm | - | - | - |
| 1788084615 | 23.89° C | 99% | 1021.9 hPa | 0 mm | - | - | - |
| 1788084023 | 23.89° C | 99% | 1021.8 hPa | 0 mm | - | - | - |
* Rain latest hour (hover to see other rain measurements)
** Current wind speed in m/s (hover to see current wind gust speed)